{"data":{"norad_id":65917,"epoch":"2026-09-20T22:34:10.863264Z","epoch_age_seconds":65032,"freshness":"FRESH","line1":"1 65917U 25225H   26263.94040351  .00012331  00000+0  37548-3 0  9998","line2":"2 65917  53.1618 335.7963 0000850 115.6681 244.4410 15.34401184 54347","mean_motion":15.34401184,"eccentricity":8.5e-5,"inclination_deg":53.1618,"raan_deg":335.7963,"arg_perigee_deg":115.6681,"mean_anomaly_deg":244.441,"bstar":0.00037548,"rev_number":5434,"period_min":93.847685664977,"perigee_km":462.11824999056,"apogee_km":463.28119223314,"semimajor_km":6840.8367211119,"source":"CELESTRAK","updated_at":"2026-09-21T09:00:35.763509Z"}}